Weather History for Westerly, RI

Change the Weather History Date:

Monday, July 1, 2013

  Actual Average (KGON) Record (KGON)
Temperature  
Mean Temperature 72 °F -  
Max Temperature 75 °F 78 °F 95 °F (1964)
Min Temperature 68 °F 59 °F 47 °F (1988)
Cooling Degree Days 6    
Growing Degree Days 22 (Base 50)    
Moisture  
Dew Point 70 °F    
Average Humidity 97    
Maximum Humidity 100    
Minimum Humidity 85    
Precipitation  
Precipitation 0.00 in - - ()
Sea Level Pressure  
Sea Level Pressure 30.03 in    
Wind  
Wind Speed 7 mph (South)    
Max Wind Speed 13 mph    
Max Gust Speed 18 mph    
Visibility 4 miles    
Events Fog , Rain    
Averages and records for this station are not official NWS values.
T = Trace of Precipitation, MM = Missing Value Source: NWS Daily Summary

Daily Weather History Graph

Daily Weather History Graph

Search for Another Location

Airport:

Trip Planner

Search our weather history database for the weather conditions in past years. The results will help you decide how hot, cold, wet, or windy it might be!

Date:

Astronomy

Jul. 01, 2013 Rise Set
Actual Time 5:17 AM EDT 8:24 PM EDT
Civil Twilight 4:44 AM EDT 8:58 PM EDT
Nautical Twilight 4:00 AM EDT 9:41 PM EDT
Astronomical Twilight 3:09 AM EDT 10:32 PM EDT
Moon 12:48 AM EDT 2:34 PM EDT
Length of Visible Light 16h 13m
Length of Day
15h 06m
Waning Crescent, 35% of the Moon is Illuminated
Jul 1
Waning Crescent
Jul 8
New
Jul 15
First Quarter
Jul 22
Full
Jul 29
Last Quarter

Hourly Weather History & Observations

Time (EDT) Temp. Dew Point Humidity Pressure Visibility Wind Dir Wind Speed Gust Speed Precip Events Conditions
12:53 AM 70.0 °F 69.1 °F 97% 29.97 in 5.0 mi SSW 6.9 mph - N/A   Overcast
1:43 AM 69.8 °F 69.8 °F 100% 29.97 in 3.0 mi SSW 4.6 mph - N/A   Overcast
1:50 AM 69.8 °F 69.8 °F 100% 29.98 in 2.5 mi SSW 5.8 mph - N/A   Overcast
1:53 AM 70.0 °F 70.0 °F 100% 29.98 in 2.5 mi SSW 5.8 mph - N/A   Overcast
2:21 AM 69.8 °F 69.8 °F 100% 29.98 in 4.0 mi SSW 9.2 mph - N/A   Overcast
2:51 AM 69.8 °F 69.8 °F 100% 29.97 in 1.8 mi South 6.9 mph - N/A   Overcast
2:53 AM 69.1 °F 69.1 °F 100% 29.97 in 1.5 mi South 6.9 mph - N/A   Overcast
3:05 AM 68.0 °F 68.0 °F 100% 29.97 in 0.5 mi South 6.9 mph - N/A Fog Fog
3:53 AM 68.0 °F 68.0 °F 100% 29.97 in 0.5 mi South 6.9 mph - N/A Fog Fog
4:26 AM 68.0 °F 68.0 °F 100% 29.98 in 0.2 mi South 5.8 mph - N/A Fog Fog
4:36 AM 69.8 °F 69.8 °F 100% 29.98 in 0.5 mi South 5.8 mph - N/A Fog Fog
4:53 AM 68.0 °F 68.0 °F 100% 29.98 in 0.5 mi South 5.8 mph - N/A Fog Fog
5:45 AM 68.0 °F 68.0 °F 100% 29.99 in 0.2 mi South 3.5 mph - N/A Fog Fog
5:53 AM 68.0 °F 68.0 °F 100% 29.99 in 0.5 mi South 3.5 mph - N/A Fog Fog
6:07 AM 68.0 °F 68.0 °F 100% 30.00 in 1.0 mi South 6.9 mph - N/A   Overcast
6:53 AM 69.1 °F 69.1 °F 100% 30.00 in 2.0 mi SSE 8.1 mph - 0.00 in   Overcast
7:03 AM 68.0 °F 68.0 °F 100% 30.00 in 0.8 mi SSE 6.9 mph - 0.00 in Rain Light Rain
7:15 AM 69.8 °F 69.8 °F 100% 30.00 in 0.2 mi SSE 6.9 mph - 0.00 in Fog Fog
7:53 AM 69.1 °F 69.1 °F 100% 30.01 in 0.2 mi SSE 9.2 mph - 0.00 in Fog Fog
8:13 AM 69.8 °F 69.8 °F 100% 30.01 in 0.8 mi South 8.1 mph - N/A   Mist
8:53 AM 69.1 °F 69.1 °F 100% 30.01 in 1.8 mi South 9.2 mph - N/A   Overcast
8:57 AM 69.8 °F 69.8 °F 100% 30.01 in 3.0 mi South 9.2 mph - N/A   Overcast
9:53 AM 71.1 °F 71.1 °F 100% 30.02 in 8.0 mi South 9.2 mph - N/A   Overcast
10:11 AM 71.6 °F 71.6 °F 100% 30.02 in 10.0 mi South 10.4 mph - N/A   Overcast
10:34 AM 73.4 °F 71.6 °F 94% 30.03 in 2.5 mi South 10.4 mph - N/A   Overcast
10:53 AM 72.0 °F 71.1 °F 97% 30.03 in 2.0 mi South 9.2 mph - N/A   Overcast
11:03 AM 73.4 °F 71.6 °F 94% 30.03 in 1.5 mi SSW 9.2 mph - N/A   Overcast
11:25 AM 71.6 °F 71.6 °F 100% 30.04 in 0.5 mi South 10.4 mph - N/A Fog Fog
11:53 AM 72.0 °F 71.1 °F 97% 30.04 in 0.5 mi South 5.8 mph - N/A Fog Fog
12:29 PM 69.8 °F 69.8 °F 100% 30.05 in 0.2 mi South 5.8 mph - N/A Fog Fog
12:38 PM 71.6 °F 69.8 °F 94% 30.04 in 0.5 mi South 8.1 mph - N/A Fog Fog
12:53 PM 71.1 °F 70.0 °F 96% 30.04 in 1.0 mi SSE 9.2 mph - N/A   Overcast
1:12 PM 71.6 °F 69.8 °F 94% 30.04 in 2.5 mi South 9.2 mph - N/A   Overcast
1:23 PM 71.6 °F 69.8 °F 94% 30.04 in 3.0 mi South 12.7 mph - N/A   Overcast
1:39 PM 71.6 °F 69.8 °F 94% 30.04 in 4.0 mi South 10.4 mph - N/A   Overcast
1:53 PM 73.0 °F 70.0 °F 90% 30.04 in 5.0 mi South 10.4 mph - N/A   Overcast
2:19 PM 73.4 °F 69.8 °F 88% 30.04 in 7.0 mi South 12.7 mph - N/A   Overcast
2:53 PM 73.9 °F 70.0 °F 87% 30.04 in 7.0 mi South 12.7 mph - N/A   Overcast
3:53 PM 75.9 °F 71.1 °F 85% 30.04 in 9.0 mi SSW 10.4 mph 18.4 mph N/A   Overcast
4:48 PM 71.6 °F 69.8 °F 94% 30.06 in 7.0 mi WSW 4.6 mph 18.4 mph 0.00 in Rain Light Rain
4:53 PM 72.0 °F 70.0 °F 93% 30.05 in 7.0 mi WSW 4.6 mph - 0.00 in Rain Light Rain
5:02 PM 71.6 °F 69.8 °F 94% 30.05 in 7.0 mi Variable 3.5 mph - 0.00 in   Overcast
5:53 PM 72.0 °F 70.0 °F 93% 30.04 in 6.0 mi South 6.9 mph - 0.00 in Rain Light Rain
6:53 PM 70.0 °F 69.1 °F 97% 30.06 in 5.0 mi South 8.1 mph - 0.00 in   Overcast
7:53 PM 71.1 °F 69.1 °F 93% 30.08 in 6.0 mi SSW 8.1 mph - N/A   Overcast
8:29 PM 71.6 °F 69.8 °F 94% 30.09 in 8.0 mi SSW 11.5 mph 18.4 mph N/A   Overcast
8:49 PM 71.6 °F 69.8 °F 94% 30.10 in 8.0 mi SSW 8.1 mph 17.3 mph N/A   Overcast
8:53 PM 72.0 °F 70.0 °F 93% 30.09 in 8.0 mi SSW 8.1 mph - N/A   Overcast
9:17 PM 71.6 °F 69.8 °F 94% 30.10 in 8.0 mi South 8.1 mph - N/A   Overcast
9:25 PM 71.6 °F 69.8 °F 94% 30.10 in 8.0 mi SSW 9.2 mph - N/A   Overcast
9:48 PM 71.6 °F 69.8 °F 94% 30.11 in 7.0 mi South 9.2 mph - N/A   Overcast
9:53 PM 71.1 °F 69.1 °F 93% 30.11 in 7.0 mi South 9.2 mph - N/A   Overcast
10:53 PM 70.0 °F 69.1 °F 97% 30.11 in 7.0 mi SSW 4.6 mph - N/A   Overcast
11:53 PM 70.0 °F 69.1 °F 97% 30.12 in 7.0 mi South 4.6 mph - N/A   Overcast